Change the Weather History Date:

Sunday, January 13, 2002

  Actual Average (KUIN) Record (KUIN)
Temperature  
Mean Temperature 38 °F 26 °F  
Max Temperature 48 °F 34 °F 58 °F (1932)
Min Temperature 28 °F 18 °F -20 °F (1912)
Degree Days  
Heating Degree Days 27 39  
Month to date heating degree days 503  
Since 1 July heating degree days 2694  
Cooling Degree Days 0 0  
Month to date cooling degree days 0  
Year to date cooling degree days 0  
Moisture  
Dew Point 29 °F    
Average Humidity 69    
Maximum Humidity 87    
Minimum Humidity 50    
Precipitation  
Precipitation 0.00 in 0.04 in 1.73 in (1911)
Month to date precipitation 0.67  
Year to date precipitation 0.67  
Sea Level Pressure  
Sea Level Pressure 29.76 in    
Wind  
Wind Speed 7 mph (South)    
Max Wind Speed 18 mph    
Max Gust Speed 25 mph    
Visibility 10 miles    
Events      
T = Trace of Precipitation, MM = Missing Value Source: NWS Daily Summary

Daily Weather History Graph

Daily Weather History Graph

Search for Another Location

Airport or City:

Trip Planner

Search our weather history database for the weather conditions in past years. The results will help you decide how hot, cold, wet, or windy it might be!

Date:

Astronomy

Jan. 13, 2002 Rise Set
Actual Time 7:22 AM CST 5:01 PM CST
Civil Twilight 6:53 AM CST 5:30 PM CST
Nautical Twilight 6:19 AM CST 6:04 PM CST
Astronomical Twilight 5:47 AM CST 6:36 PM CST
Moon 7:40 AM CST (1/13) 5:09 PM CST (1/13)
Length of Visible Light 10h 37m
Length of Day
9h 38m
New Moon, 0% of the Moon is Illuminated
Jan 13
New Moon
Jan 21
First Quarter
Jan 28
Full
Feb 4
Last Quarter
Feb 12
New

Hourly Weather History & Observations

Time (CST) Temp. Windchill Dew Point Humidity Pressure Visibility Wind Dir Wind Speed Gust Speed Precip Events Conditions
12:07 AM 33.8 °F 27.7 °F 26.6 °F 75% 29.88 in 10.0 mi West 6.9 mph - N/A   Clear
12:27 AM 33.8 °F 28.6 °F 26.6 °F 75% 29.87 in 10.0 mi West 5.8 mph - N/A   Clear
12:47 AM 33.8 °F 29.6 °F 26.6 °F 75% 29.86 in 10.0 mi West 4.6 mph - N/A   Clear
1:07 AM 33.8 °F 30.8 °F 24.8 °F 70% 29.86 in 10.0 mi West 3.5 mph - N/A   Clear
1:27 AM 33.8 °F 30.8 °F 24.8 °F 70% 29.85 in 10.0 mi West 3.5 mph - N/A   Clear
1:47 AM 33.8 °F - 26.6 °F 75% 29.86 in 10.0 mi Calm Calm - N/A   Clear
2:07 AM 33.8 °F 30.8 °F 24.8 °F 70% 29.87 in 10.0 mi SW 3.5 mph - N/A   Clear
2:28 AM 30.2 °F 26.7 °F 24.8 °F 80% 29.86 in 10.0 mi South 3.5 mph - N/A   Clear
2:47 AM 28.4 °F 24.6 °F 24.8 °F 86% 29.85 in 10.0 mi South 3.5 mph - N/A   Clear
3:07 AM 28.4 °F 23.3 °F 24.8 °F 86% 29.84 in 10.0 mi South 4.6 mph - N/A   Clear
3:29 AM 30.2 °F 24.3 °F 24.8 °F 80% 29.84 in 10.0 mi SSW 5.8 mph - N/A   Clear
3:48 AM 30.2 °F 26.7 °F 24.8 °F 80% 29.84 in 10.0 mi SSW 3.5 mph - N/A   Clear
4:07 AM 32.0 °F 25.6 °F 26.6 °F 80% 29.84 in 10.0 mi SSW 6.9 mph - N/A   Clear
4:27 AM 32.0 °F 26.4 °F 26.6 °F 80% 29.83 in 10.0 mi SSW 5.8 mph - N/A   Clear
4:47 AM 32.0 °F 27.5 °F 26.6 °F 80% 29.84 in 10.0 mi SSW 4.6 mph - N/A   Clear
5:07 AM 32.0 °F 26.4 °F 26.6 °F 80% 29.84 in 10.0 mi SSW 5.8 mph - N/A   Clear
5:27 AM 32.0 °F 25.6 °F 26.6 °F 80% 29.83 in 10.0 mi South 6.9 mph - N/A   Clear
5:47 AM 32.0 °F 26.4 °F 26.6 °F 80% 29.83 in 10.0 mi South 5.8 mph - N/A   Clear
6:07 AM 32.0 °F 25.6 °F 26.6 °F 80% 29.84 in 10.0 mi South 6.9 mph - N/A   Scattered Clouds
6:27 AM 32.0 °F 26.4 °F 26.6 °F 80% 29.84 in 10.0 mi South 5.8 mph - N/A   Scattered Clouds
6:47 AM 32.0 °F 25.6 °F 28.4 °F 87% 29.83 in 10.0 mi SSE 6.9 mph - N/A   Scattered Clouds
7:07 AM 32.0 °F 25.6 °F 26.6 °F 80% 29.83 in 10.0 mi South 6.9 mph - N/A   Mostly Cloudy
7:28 AM 33.8 °F 29.6 °F 30.2 °F 87% 29.83 in 10.0 mi South 4.6 mph - N/A   Mostly Cloudy
7:47 AM 33.8 °F 29.6 °F 30.2 °F 87% 29.83 in 10.0 mi South 4.6 mph - N/A   Overcast
8:07 AM 33.8 °F 27.0 °F 28.4 °F 81% 29.83 in 10.0 mi South 8.1 mph - N/A   Mostly Cloudy
8:27 AM 33.8 °F 27.7 °F 28.4 °F 81% 29.82 in 10.0 mi SSE 6.9 mph - N/A   Scattered Clouds
8:47 AM 35.6 °F 29.2 °F 28.4 °F 75% 29.81 in 10.0 mi SSE 8.1 mph - N/A   Clear
9:07 AM 35.6 °F 30.7 °F 28.4 °F 75% 29.81 in 10.0 mi SSE 5.8 mph - N/A   Clear
9:27 AM 37.4 °F 32.1 °F 30.2 °F 75% 29.81 in 10.0 mi South 6.9 mph - N/A   Clear
9:49 AM 37.4 °F 32.1 °F 28.4 °F 70% 29.81 in 10.0 mi South 6.9 mph - N/A   Clear
10:07 AM 39.2 °F 33.0 °F 30.2 °F 70% 29.80 in 10.0 mi South 9.2 mph - N/A   Clear
10:27 AM 39.2 °F 33.0 °F 30.2 °F 70% 29.79 in 10.0 mi SSE 9.2 mph - N/A   Clear
10:47 AM 39.2 °F 32.5 °F 30.2 °F 70% 29.77 in 10.0 mi SSE 10.4 mph - N/A   Clear
11:07 AM 41.0 °F 34.3 °F 30.2 °F 65% 29.75 in 10.0 mi SSE 11.5 mph - N/A   Clear
11:27 AM 42.8 °F 35.8 °F 30.2 °F 61% 29.74 in 10.0 mi South 13.8 mph 20.7 mph N/A   Clear
11:49 AM 48.2 °F - 30.2 °F 50% 29.71 in 10.0 mi South 18.4 mph 25.3 mph N/A   Clear
12:07 PM 46.4 °F 39.2 °F 28.4 °F 50% 29.71 in 10.0 mi South 18.4 mph 23.0 mph N/A   Clear
12:27 PM 46.4 °F 40.7 °F 30.2 °F 53% 29.69 in 10.0 mi South 12.7 mph 19.6 mph N/A   Clear
12:49 PM 48.2 °F - 30.2 °F 50% 29.67 in 10.0 mi South 15.0 mph 18.4 mph N/A   Clear
1:07 PM 48.2 °F - 30.2 °F 50% 29.65 in 10.0 mi South 13.8 mph 21.9 mph N/A   Clear
1:30 PM 48.2 °F - 32.0 °F 54% 29.64 in 10.0 mi South 11.5 mph - N/A   Clear
1:47 PM 48.2 °F - 30.2 °F 50% 29.64 in 10.0 mi South 18.4 mph 23.0 mph N/A   Clear
2:07 PM 48.2 °F - 30.2 °F 50% 29.63 in 10.0 mi South 15.0 mph 23.0 mph N/A   Clear
2:27 PM 48.2 °F - 32.0 °F 54% 29.63 in 10.0 mi SSE 13.8 mph - N/A   Clear
2:47 PM 48.2 °F - 32.0 °F 54% 29.62 in 10.0 mi SSE 11.5 mph - N/A   Clear
3:07 PM 48.2 °F - 32.0 °F 54% 29.61 in 10.0 mi SSE 17.3 mph 21.9 mph N/A   Clear
3:27 PM 48.2 °F - 32.0 °F 54% 29.62 in 10.0 mi SSE 13.8 mph 20.7 mph N/A   Clear
3:47 PM 48.2 °F - 32.0 °F 54% 29.62 in 10.0 mi South 11.5 mph - N/A   Clear
4:07 PM 48.2 °F - 33.8 °F 58% 29.62 in 10.0 mi SE 11.5 mph - N/A   Clear
4:27 PM 48.2 °F - 33.8 °F 58% 29.62 in 10.0 mi SSE 9.2 mph - N/A   Clear
4:47 PM 48.2 °F - 33.8 °F 58% 29.62 in 10.0 mi SSE 8.1 mph - N/A   Clear
5:07 PM 46.4 °F 41.5 °F 32.0 °F 57% 29.62 in 10.0 mi South 10.4 mph - N/A   Clear
5:29 PM 42.8 °F 38.6 °F 30.2 °F 61% 29.63 in 10.0 mi SSE 6.9 mph - N/A   Clear
5:49 PM 42.8 °F 38.6 °F 30.2 °F 61% 29.62 in 10.0 mi SSE 6.9 mph - N/A   Clear
6:07 PM 42.8 °F 39.3 °F 30.2 °F 61% 29.63 in 10.0 mi SSE 5.8 mph - N/A   Clear
6:27 PM 42.8 °F 38.0 °F 30.2 °F 61% 29.64 in 10.0 mi SSE 8.1 mph - N/A   Clear
6:47 PM 42.8 °F 38.0 °F 32.0 °F 66% 29.63 in 10.0 mi SSE 8.1 mph - N/A   Clear
7:07 PM 42.8 °F 37.5 °F 32.0 °F 66% 29.63 in 10.0 mi South 9.2 mph - N/A   Scattered Clouds
7:27 PM 46.4 °F 41.5 °F 33.8 °F 62% 29.63 in 10.0 mi South 10.4 mph - N/A   Scattered Clouds
7:47 PM 46.4 °F 40.7 °F 33.8 °F 62% 29.63 in 10.0 mi South 12.7 mph - N/A   Mostly Cloudy
8:07 PM 46.4 °F 40.4 °F 33.8 °F 62% 29.63 in 10.0 mi South 13.8 mph 18.4 mph N/A   Scattered Clouds
8:27 PM 46.4 °F 40.4 °F 33.8 °F 62% 29.64 in 10.0 mi South 13.8 mph - N/A   Scattered Clouds
8:47 PM 46.4 °F 40.7 °F 33.8 °F 62% 29.64 in 10.0 mi South 12.7 mph 19.6 mph N/A   Clear
9:07 PM 46.4 °F 40.7 °F 35.6 °F 66% 29.64 in 10.0 mi South 12.7 mph - N/A   Scattered Clouds
9:27 PM 44.6 °F 39.2 °F 33.8 °F 66% 29.64 in 10.0 mi South 10.4 mph - N/A   Scattered Clouds
9:47 PM 44.6 °F 38.4 °F 33.8 °F 66% 29.63 in 10.0 mi South 12.7 mph 18.4 mph N/A   Mostly Cloudy
10:07 PM 42.8 °F 37.0 °F 33.8 °F 70% 29.63 in 10.0 mi South 10.4 mph 16.1 mph N/A   Mostly Cloudy
10:27 PM 42.8 °F 37.0 °F 33.8 °F 70% 29.63 in 10.0 mi South 10.4 mph - N/A   Scattered Clouds
10:47 PM 42.8 °F 37.0 °F 33.8 °F 70% 29.62 in 10.0 mi South 10.4 mph - N/A   Clear
11:07 PM 42.8 °F 37.5 °F 33.8 °F 70% 29.62 in 10.0 mi South 9.2 mph - N/A   Clear
11:27 PM 39.2 °F 33.0 °F 33.8 °F 81% 29.62 in 10.0 mi South 9.2 mph - N/A   Clear
11:47 PM 42.8 °F 38.0 °F 33.8 °F 70% 29.61 in 10.0 mi South 8.1 mph - N/A   Clear